DELTA 1 DEB

Satellite information

Favourite Embed

Satellite Type and Status

DEBRISIN ORBIT

Key statistics

Satellite DELTA 1 DEB at a glance.

Uptime

17527

Days in orbit

Revolutions

≈ 13.6

Per day

Orbit

LEO

Low Earth Orbit

Inclination

28.8

Latest

Satellite identification and parameters

Extended collection of information and parameters for DELTA 1 DEB.

Object identification

Identified? True

Debris? True

Object name: DELTA 1 DEB

International designator: 1977-065DL

Object number (NORAD): 10314

Object ID (CCSDS): 10314

Country: UNITED STATES OF AMERICA (US)

Current information (Y/N): Y

RCS size: SMALL

Orbital parameters

Period: 106.116 minutes

Inclination: 28.7815 deg

SMA: 7424.724 km

Apoapsis: 1523.846 km

Periapsis: 569.333 km

RAAN: 293.4135 deg

Eccentricy: 0.0642793

Argument of periapsis: 347.6043 deg

Mean anomaly: 128.6341 deg

Mean motion: 13.570075 rev/day

Mean motion (dot): 0.00001171 rev/day2

B* drag term: 0.00037644 1/REarth

Two-line elements (TLE)

Creation date: July 6, 2025, 6:05 p.m.

Reference frame: TEME

Reference center: EARTH

Epoch: July 6, 2025, 2:43 p.m. UTC

TLE line 0: 0 DELTA 1 DEB

TLE line 1: 1 10314U 77065DL 25187.61338083 .00001171 00000-0 37644-3 0 9996

TLE line 2: 2 10314 28.7815 293.4135 0642793 347.6043 128.6341 13.57007500312310

Live tracking on map

Real-time ground track for satellite DELTA 1 DEB.

In-orbit conjunctions

A list of the most updated potential collisions computed for object DELTA 1 DEB.

Target Orbit TCA Probability of collision Miss distance Type
CZ-2D R/B SSO 2025-03-30 16:49:06 0.0001049817 657.0 (m) ROCKET BODY

Associated space launch

Japanese meteorological satellite built by Hughes Space and Communications Company

DELTA 1 DEB was lifted into orbit during the mission ‘Delta 2914 | Himawari’, on board a Delta 2914 space rocket.

The launch took place on July 14, 1977, 10:39 a.m. from Space Launch Complex 17B.

For more information about the launch, click the button.

Launch to space Delta 2914 | Himawari
Delta 2914 | Himawari

Agency: N/A

Status: Launch Successful

Launch date: July 14, 1977, 10:39 a.m. UTC

Rocket: Delta 2914

Launch pad: Space Launch Complex 17B

Location: Cape Canaveral SFS, FL, USA

...

Latest news about this satellite

There are no fresh news available about this satellite. Check back as we update our databases every day.


Newsletter sign-up

Weekly statistics, charts and insights to help you stay on top of the space industry.